Location: Carri�res
(48.9069°N, 2.1792°E)
Time: 13:53:19
(UTC+00:00)

Cosmos 158 Rocket - Pass Details

Date: 17 January 2021
Orbit: 698 x 794 km, 74.0° (Epoch: 25 February)

Event Time Altitude Azimuth Distance (km) Brightness Sun altitude
Rises 18:43:12 0° 338° (NNW) 3,244 7.4 -22.1°
Reaches altitude 10° 18:45:36 10° 342° (NNW) 2,327 6.6 -22.5°
Maximum altitude 18:50:52 64° 64° (ENE) 871 3.9 -23.3°
Enters shadow 18:51:25 60° 96° (E) 900 4.0 -23.4°
